Regional Weather Roundup
Issued by NWS

Home | Current Version | Previous Version | Graphics & Text | Print | Product List | Glossary On
Versions: 1 2 3 4 5 6 7 8 9 10 11 12 13 14 15 16 17 18 19 20 21 22 23 24 25 26 27 28 29 30 31 32 33 34 35 36 37 38 39 40 41 42 43 44 45 46 47 48 49 50
000
ASUS45 KCYS 191110
RWRWY

WYOMING REGIONAL WEATHER ROUNDUP
NATIONAL WEATHER SERVICE CHEYENNE WY
500 AM MDT TUE AUG 19 2014

NOTE:  "FAIR" INDICATES FEW OR NO CLOUDS BELOW 12,000 FEET
WITH NO SIGNIFICANT WEATHER AND/OR OBSTRUCTIONS TO VISIBILITY.

WYZ001-191200-
YELLOWSTONE NATIONAL PARK

CITY           SKY/WX    TMP DP  RH WIND       PRES   REMARKS
LK YELLOWSTONE   N/A     39  37  92 W3        30.18F
W YELLOWSTONE  NOT AVBL

$$
WYZ002>013-054>058-071-098>099-191200-
NORTHERN WYOMING

CITY           SKY/WX    TMP DP  RH WIND       PRES   REMARKS
JACKSON        PTCLDY    48  39  71 N8        30.09S
CODY           CLEAR     63  39  42 SW10      29.94S
GREYBULL       CLEAR     57  47  69 CALM      29.88S
WORLAND        PTCLDY    57  42  57 S9        29.90R
SHERIDAN       CLEAR     51  46  83 CALM      29.87S
BUFFALO        PTCLDY    61  43  51 SW6       29.94S
GILLETTE       CLEAR     63  48  58 SE7       29.91S
HULETT         FAIR      61  48  63 MISG      29.92
NEWCASTLE      FAIR      59  45  58 W3        29.93

$$
WYZ014>020-022>026-101>103-191200-
CENTRAL WYOMING

CITY           SKY/WX    TMP DP  RH WIND       PRES   REMARKS
BIG PINEY      MOCLDY    45  35  68 CALM      30.11F
PINEDALE       PTSUNNY   41  37  87 NW5       30.11F
DUBOIS         FAIR      48  34  57 NW8       30.12S
LANDER         PTCLDY    62  38  40 CALM      29.98F
RIVERTON       MOCLDY    58  39  49 NW9       29.99S
CASPER         MOCLDY    52  40  63 S3        29.97S
DOUGLAS        MOCLDY    55  47  74 CALM      29.96S

$$
WYZ021-027>030-104>119-191200-
SOUTHERN WYOMING

CITY           SKY/WX    TMP DP  RH WIND       PRES   REMARKS
EVANSTON       CLOUDY    63  38  39 W10       30.11S
KEMMERER       CLOUDY    52  37  58 N7        30.12S
FORT BRIDGER   FAIR      61  37  39 SW3       30.13R
ROCK SPRINGS   MOCLDY    60  31  33 CALM      30.07S
DIXON          FAIR      54  37  52 E5        30.11R
RAWLINS        PTCLDY    50  33  52 CALM      30.07F
SARATOGA       FAIR      50  36  57 MISG      30.10F
LARAMIE        CLEAR     48  40  73 W8        30.12R
CHEYENNE       CLEAR     54  48  80 W7        30.04F
TORRINGTON     PTCLDY    58  54  86 E12       29.91F
PINE BLUFFS    FAIR      52  50  93 CALM      30.00S

$$



USA.gov is the U.S. government's official web portal to all federal, state and local government web resources and services.